Year,Month,Day,Hour,Minute,Value (Times are PST for temperature in C)
2012,05,26,00,00,11.30
2012,05,26,00,01,11.30
2012,05,26,00,02,11.30
2012,05,26,00,03,11.30
2012,05,26,00,04,11.30
2012,05,26,00,05,11.30
2012,05,26,00,06,11.30
2012,05,26,00,07,11.20
2012,05,26,00,08,11.20
2012,05,26,00,09,11.20
2012,05,26,00,10,11.20
2012,05,26,00,11,11.20
2012,05,26,00,12,11.20
2012,05,26,00,13,11.10
2012,05,26,00,14,11.10
2012,05,26,00,15,11.10
2012,05,26,00,16,11.10
2012,05,26,00,17,11.10
2012,05,26,00,18,11.10
2012,05,26,00,19,11.10
2012,05,26,00,20,11.10
2012,05,26,00,21,11.00
2012,05,26,00,22,11.00
2012,05,26,00,23,11.00
2012,05,26,00,24,11.00
2012,05,26,00,25,10.90
2012,05,26,00,26,10.90
2012,05,26,00,27,10.90
2012,05,26,00,28,10.90
2012,05,26,00,29,10.90
2012,05,26,00,30,10.80
2012,05,26,00,31,10.80
2012,05,26,00,32,10.80
2012,05,26,00,33,10.80
2012,05,26,00,34,10.80
2012,05,26,00,35,10.80
2012,05,26,00,36,10.70
2012,05,26,00,37,10.70
2012,05,26,00,38,10.70
2012,05,26,00,39,10.70
2012,05,26,00,40,10.70
2012,05,26,00,41,10.70
2012,05,26,00,42,10.70
2012,05,26,00,43,10.70
2012,05,26,00,44,10.70
2012,05,26,00,45,10.70
2012,05,26,00,46,10.70
2012,05,26,00,47,10.70
2012,05,26,00,48,10.70
2012,05,26,00,49,10.70
2012,05,26,00,50,10.70
2012,05,26,00,51,10.70
2012,05,26,00,52,10.70
2012,05,26,00,53,10.70
2012,05,26,00,54,10.60
2012,05,26,00,55,10.60
2012,05,26,00,56,10.60
2012,05,26,00,57,10.60
2012,05,26,00,58,10.60
2012,05,26,00,59,10.60
2012,05,26,01,00,10.50
2012,05,26,01,01,10.50
2012,05,26,01,02,10.50
2012,05,26,01,03,10.40
2012,05,26,01,04,10.40
2012,05,26,01,05,10.40
2012,05,26,01,06,10.40
2012,05,26,01,07,10.40
2012,05,26,01,08,10.40
2012,05,26,01,09,10.40
2012,05,26,01,10,10.40
2012,05,26,01,11,10.40
2012,05,26,01,12,10.40
2012,05,26,01,13,10.40
2012,05,26,01,14,10.40
2012,05,26,01,15,10.30
2012,05,26,01,16,10.30
2012,05,26,01,17,10.30
2012,05,26,01,18,10.30
2012,05,26,01,19,10.30
2012,05,26,01,20,10.30
2012,05,26,01,21,10.30
2012,05,26,01,22,10.30
2012,05,26,01,23,10.30
2012,05,26,01,24,10.20
2012,05,26,01,25,10.20
2012,05,26,01,26,10.20
2012,05,26,01,27,10.20
2012,05,26,01,28,10.20
2012,05,26,01,29,10.20
2012,05,26,01,30,10.20
2012,05,26,01,31,10.20
2012,05,26,01,32,10.20
2012,05,26,01,33,10.20
2012,05,26,01,34,10.20
2012,05,26,01,35,10.20
2012,05,26,01,36,10.20
2012,05,26,01,37,10.20
2012,05,26,01,38,10.20
2012,05,26,01,39,10.20
2012,05,26,01,40,10.20
2012,05,26,01,41,10.20
2012,05,26,01,42,10.10
2012,05,26,01,43,10.10
2012,05,26,01,44,10.10
2012,05,26,01,45,10.10
2012,05,26,01,46,10.10
2012,05,26,01,47,10.00
2012,05,26,01,48,10.00
2012,05,26,01,49,10.00
2012,05,26,01,50,10.00
2012,05,26,01,51,10.00
2012,05,26,01,52,10.00
2012,05,26,01,53,10.00
2012,05,26,01,54,10.00
2012,05,26,01,55,10.00
2012,05,26,01,56,10.00
2012,05,26,01,57,10.00
2012,05,26,01,58,10.00
2012,05,26,01,59,10.00
2012,05,26,02,00,10.00
2012,05,26,02,01,10.00
2012,05,26,02,02,9.90
2012,05,26,02,03,9.90
2012,05,26,02,04,9.90
2012,05,26,02,05,9.90
2012,05,26,02,06,9.90
2012,05,26,02,07,9.90
2012,05,26,02,08,9.90
2012,05,26,02,09,9.90
2012,05,26,02,10,9.90
2012,05,26,02,11,9.80
2012,05,26,02,12,9.80
2012,05,26,02,13,9.80
2012,05,26,02,14,9.80
2012,05,26,02,15,9.80
2012,05,26,02,16,9.80
2012,05,26,02,17,9.80
2012,05,26,02,18,9.80
2012,05,26,02,19,9.80
2012,05,26,02,20,9.70
2012,05,26,02,21,9.70
2012,05,26,02,22,9.70
2012,05,26,02,23,9.70
2012,05,26,02,24,9.70
2012,05,26,02,25,9.70
2012,05,26,02,26,9.70
2012,05,26,02,27,9.70
2012,05,26,02,28,9.70
2012,05,26,02,29,9.70
2012,05,26,02,30,9.60
2012,05,26,02,31,9.60
2012,05,26,02,32,9.60
2012,05,26,02,33,9.60
2012,05,26,02,34,9.60
2012,05,26,02,35,9.60
2012,05,26,02,36,9.60
2012,05,26,02,37,9.60
2012,05,26,02,38,9.60
2012,05,26,02,39,9.60
2012,05,26,02,40,9.60
2012,05,26,02,41,9.60
2012,05,26,02,42,9.60
2012,05,26,02,43,9.60
2012,05,26,02,44,9.60
2012,05,26,02,45,9.60
2012,05,26,02,46,9.60
2012,05,26,02,47,9.60
2012,05,26,02,48,9.60
2012,05,26,02,49,9.60
2012,05,26,02,50,9.60
2012,05,26,02,51,9.60
2012,05,26,02,52,9.60
2012,05,26,02,53,9.50
2012,05,26,02,54,9.50
2012,05,26,02,55,9.50
2012,05,26,02,56,9.50
2012,05,26,02,57,9.50
2012,05,26,02,58,9.50
2012,05,26,02,59,9.50
2012,05,26,03,00,9.50
2012,05,26,03,01,9.50
2012,05,26,03,02,9.50
2012,05,26,03,03,9.50
2012,05,26,03,04,9.50
2012,05,26,03,05,9.40
2012,05,26,03,06,9.40
2012,05,26,03,07,9.40
2012,05,26,03,08,9.40
2012,05,26,03,09,9.40
2012,05,26,03,10,9.40
2012,05,26,03,11,9.40
2012,05,26,03,12,9.40
2012,05,26,03,13,9.40
2012,05,26,03,14,9.40
2012,05,26,03,15,9.40
2012,05,26,03,16,9.30
2012,05,26,03,17,9.30
2012,05,26,03,18,9.30
2012,05,26,03,19,9.30
2012,05,26,03,20,9.30
2012,05,26,03,21,9.30
2012,05,26,03,22,9.30
2012,05,26,03,23,9.30
2012,05,26,03,24,9.30
2012,05,26,03,25,9.30
2012,05,26,03,26,9.30
2012,05,26,03,27,9.30
2012,05,26,03,28,9.30
2012,05,26,03,29,9.20
2012,05,26,03,30,9.20
2012,05,26,03,31,9.20
2012,05,26,03,32,9.20
2012,05,26,03,33,9.30
2012,05,26,03,34,9.30
2012,05,26,03,35,9.30
2012,05,26,03,36,9.30
2012,05,26,03,37,9.30
2012,05,26,03,38,9.30
2012,05,26,03,39,9.20
2012,05,26,03,40,9.20
2012,05,26,03,41,9.20
2012,05,26,03,42,9.20
2012,05,26,03,43,9.20
2012,05,26,03,44,9.20
2012,05,26,03,45,9.20
2012,05,26,03,46,9.20
2012,05,26,03,47,9.20
2012,05,26,03,48,9.20
2012,05,26,03,49,9.20
2012,05,26,03,50,9.20
2012,05,26,03,51,9.20
2012,05,26,03,52,9.20
2012,05,26,03,53,9.10
2012,05,26,03,54,9.10
2012,05,26,03,55,9.10
2012,05,26,03,56,9.10
2012,05,26,03,57,9.10
2012,05,26,03,58,9.10
2012,05,26,03,59,9.10
2012,05,26,04,00,9.10
2012,05,26,04,01,9.10
2012,05,26,04,02,9.10
2012,05,26,04,03,9.10
2012,05,26,04,04,9.10
2012,05,26,04,05,9.10
2012,05,26,04,06,9.10
2012,05,26,04,07,9.10
2012,05,26,04,08,9.00
2012,05,26,04,09,9.00
2012,05,26,04,10,9.00
2012,05,26,04,11,9.00
2012,05,26,04,12,9.00
2012,05,26,04,13,9.00
2012,05,26,04,14,8.90
2012,05,26,04,15,8.90
2012,05,26,04,16,8.90
2012,05,26,04,17,8.90
2012,05,26,04,18,8.90
2012,05,26,04,19,8.90
2012,05,26,04,20,8.90
2012,05,26,04,21,8.90
2012,05,26,04,22,8.90
2012,05,26,04,23,8.90
2012,05,26,04,24,8.90
2012,05,26,04,25,8.90
2012,05,26,04,26,8.90
2012,05,26,04,27,8.90
2012,05,26,04,28,8.90
2012,05,26,04,29,8.90
2012,05,26,04,30,8.90
2012,05,26,04,31,8.90
2012,05,26,04,32,8.90
2012,05,26,04,33,8.80
2012,05,26,04,34,8.80
2012,05,26,04,35,8.80
2012,05,26,04,36,8.80
2012,05,26,04,37,8.80
2012,05,26,04,38,8.80
2012,05,26,04,39,8.80
2012,05,26,04,40,8.80
2012,05,26,04,41,8.80
2012,05,26,04,42,8.80
2012,05,26,04,43,8.80
2012,05,26,04,44,8.80
2012,05,26,04,45,8.70
2012,05,26,04,46,8.70
2012,05,26,04,47,8.70
2012,05,26,04,48,8.70
2012,05,26,04,49,8.70
2012,05,26,04,50,8.70
2012,05,26,04,51,8.70
2012,05,26,04,52,8.70
2012,05,26,04,53,8.70
2012,05,26,04,54,8.70
2012,05,26,04,55,8.60
2012,05,26,04,56,8.60
2012,05,26,04,57,8.60
2012,05,26,04,58,8.60
2012,05,26,04,59,8.60
2012,05,26,05,00,8.60
2012,05,26,05,01,8.60
2012,05,26,05,02,8.60
2012,05,26,05,03,8.60
2012,05,26,05,04,8.60
2012,05,26,05,05,8.60
2012,05,26,05,06,8.60
2012,05,26,05,07,8.60
2012,05,26,05,08,8.50
2012,05,26,05,09,8.50
2012,05,26,05,10,8.50
2012,05,26,05,11,8.50
2012,05,26,05,12,8.40
2012,05,26,05,13,8.40
2012,05,26,05,14,8.40
2012,05,26,05,15,8.40
2012,05,26,05,16,8.40
2012,05,26,05,17,8.40
2012,05,26,05,18,8.40
2012,05,26,05,19,8.50
2012,05,26,05,20,8.50
2012,05,26,05,21,8.50
2012,05,26,05,22,8.50
2012,05,26,05,23,8.50
2012,05,26,05,24,8.50
2012,05,26,05,25,8.50
2012,05,26,05,26,8.50
2012,05,26,05,27,8.50
2012,05,26,05,28,8.50
2012,05,26,05,29,8.50
2012,05,26,05,30,8.50
2012,05,26,05,31,8.50
2012,05,26,05,32,8.50
2012,05,26,05,33,8.50
2012,05,26,05,34,8.50
2012,05,26,05,35,8.50
2012,05,26,05,36,8.50
2012,05,26,05,37,8.50
2012,05,26,05,38,8.50
2012,05,26,05,39,8.50
2012,05,26,05,40,8.50
2012,05,26,05,41,8.50
2012,05,26,05,42,8.40
2012,05,26,05,43,8.40
2012,05,26,05,44,8.40
2012,05,26,05,45,8.40
2012,05,26,05,46,8.40
2012,05,26,05,47,8.40
2012,05,26,05,48,8.40
2012,05,26,05,49,8.40
2012,05,26,05,50,8.50
2012,05,26,05,51,8.50
2012,05,26,05,52,8.50
2012,05,26,05,53,8.50
2012,05,26,05,54,8.50
2012,05,26,05,55,8.50
2012,05,26,05,56,8.50
2012,05,26,05,57,8.50
2012,05,26,05,58,8.50
2012,05,26,05,59,8.40
2012,05,26,06,00,8.40
2012,05,26,06,01,8.40
2012,05,26,06,02,8.40
2012,05,26,06,03,8.40
2012,05,26,06,04,8.40
2012,05,26,06,05,8.40
2012,05,26,06,06,8.40
2012,05,26,06,07,8.40
2012,05,26,06,08,8.40
2012,05,26,06,09,8.40
2012,05,26,06,10,8.40
2012,05,26,06,11,8.40
2012,05,26,06,12,8.40
2012,05,26,06,13,8.40
2012,05,26,06,14,8.40
2012,05,26,06,15,8.40
2012,05,26,06,16,8.40
2012,05,26,06,17,8.40
2012,05,26,06,18,8.40
2012,05,26,06,19,8.40
2012,05,26,06,20,8.40
2012,05,26,06,21,8.50
2012,05,26,06,22,8.50
2012,05,26,06,23,8.50
2012,05,26,06,24,8.50
2012,05,26,06,25,8.60
2012,05,26,06,26,8.60
2012,05,26,06,27,8.60
2012,05,26,06,28,8.60
2012,05,26,06,29,8.60
2012,05,26,06,30,8.60
2012,05,26,06,31,8.60
2012,05,26,06,32,8.60
2012,05,26,06,33,8.60
2012,05,26,06,34,8.70
2012,05,26,06,35,8.70
2012,05,26,06,36,8.70
2012,05,26,06,37,8.80
2012,05,26,06,38,8.80
2012,05,26,06,39,8.80
2012,05,26,06,40,8.80
2012,05,26,06,41,8.80
2012,05,26,06,42,8.90
2012,05,26,06,43,8.90
2012,05,26,06,44,8.90
2012,05,26,06,45,8.90
2012,05,26,06,46,8.90
2012,05,26,06,47,8.90
2012,05,26,06,48,8.90
2012,05,26,06,49,8.90
2012,05,26,06,50,8.90
2012,05,26,06,51,8.90
2012,05,26,06,52,9.00
2012,05,26,06,53,9.00
2012,05,26,06,54,9.10
2012,05,26,06,55,9.20
2012,05,26,06,56,9.20
2012,05,26,06,57,9.30
2012,05,26,06,58,9.30
2012,05,26,06,59,9.30
2012,05,26,07,00,9.40
2012,05,26,07,01,9.40
2012,05,26,07,02,9.50
2012,05,26,07,03,9.60
2012,05,26,07,04,9.60
2012,05,26,07,05,9.70
2012,05,26,07,06,9.70
2012,05,26,07,07,9.80
2012,05,26,07,08,9.80
2012,05,26,07,09,9.90
2012,05,26,07,10,9.90
2012,05,26,07,11,10.00
2012,05,26,07,12,10.10
2012,05,26,07,13,10.10
2012,05,26,07,14,10.20
2012,05,26,07,15,10.30
2012,05,26,07,16,10.30
2012,05,26,07,17,10.40
2012,05,26,07,18,10.50
2012,05,26,07,19,10.60
2012,05,26,07,20,10.80
2012,05,26,07,21,10.80
2012,05,26,07,22,10.80
2012,05,26,07,23,10.70
2012,05,26,07,24,10.60
2012,05,26,07,25,10.60
2012,05,26,07,26,10.50
2012,05,26,07,27,10.50
2012,05,26,07,28,10.50
2012,05,26,07,29,10.50
2012,05,26,07,30,10.50
2012,05,26,07,31,10.60
2012,05,26,07,32,10.70
2012,05,26,07,33,10.80
2012,05,26,07,34,10.90
2012,05,26,07,35,11.00
2012,05,26,07,36,11.20
2012,05,26,07,37,11.30
2012,05,26,07,38,11.40
2012,05,26,07,39,11.40
2012,05,26,07,40,11.40
2012,05,26,07,41,11.50
2012,05,26,07,42,11.50
2012,05,26,07,43,11.60
2012,05,26,07,44,11.60
2012,05,26,07,45,11.80
2012,05,26,07,46,11.90
2012,05,26,07,47,12.00
2012,05,26,07,48,12.10
2012,05,26,07,49,12.30
2012,05,26,07,50,12.40
2012,05,26,07,51,12.50
2012,05,26,07,52,12.60
2012,05,26,07,53,12.70
2012,05,26,07,54,12.90
2012,05,26,07,55,13.00
2012,05,26,07,56,13.10
2012,05,26,07,57,13.10
2012,05,26,07,58,13.20
2012,05,26,07,59,13.20
2012,05,26,08,00,13.30
2012,05,26,08,01,13.30
2012,05,26,08,02,13.30
2012,05,26,08,03,13.40
2012,05,26,08,04,13.50
2012,05,26,08,05,13.50
2012,05,26,08,06,13.60
2012,05,26,08,07,13.60
2012,05,26,08,08,13.70
2012,05,26,08,09,13.80
2012,05,26,08,10,13.90
2012,05,26,08,11,13.90
2012,05,26,08,12,14.00
2012,05,26,08,13,14.10
2012,05,26,08,14,14.10
2012,05,26,08,15,14.20
2012,05,26,08,16,14.30
2012,05,26,08,17,14.40
2012,05,26,08,18,14.50
2012,05,26,08,19,14.50
2012,05,26,08,20,14.60
2012,05,26,08,21,14.60
2012,05,26,08,22,14.60
2012,05,26,08,23,14.60
2012,05,26,08,24,14.60
2012,05,26,08,25,14.60
2012,05,26,08,26,14.60
2012,05,26,08,27,14.50
2012,05,26,08,28,14.50
2012,05,26,08,29,14.40
2012,05,26,08,30,14.40
2012,05,26,08,31,14.40
2012,05,26,08,32,14.40
2012,05,26,08,33,14.40
2012,05,26,08,34,14.30
2012,05,26,08,35,14.30
2012,05,26,08,36,14.30
2012,05,26,08,37,14.30
2012,05,26,08,38,14.30
2012,05,26,08,39,14.30
2012,05,26,08,40,14.20
2012,05,26,08,41,14.20
2012,05,26,08,42,14.20
2012,05,26,08,43,14.20
2012,05,26,08,44,14.20
2012,05,26,08,45,14.20
2012,05,26,08,46,14.20
2012,05,26,08,47,14.20
2012,05,26,08,48,14.10
2012,05,26,08,49,14.10
2012,05,26,08,50,14.10
2012,05,26,08,51,14.10
2012,05,26,08,52,14.10
2012,05,26,08,53,14.20
2012,05,26,08,54,14.20
2012,05,26,08,55,14.20
2012,05,26,08,56,14.10
2012,05,26,08,57,14.10
2012,05,26,08,58,14.10
2012,05,26,08,59,14.10
2012,05,26,09,00,14.10
2012,05,26,09,01,14.10
2012,05,26,09,02,14.10
2012,05,26,09,03,14.00
2012,05,26,09,04,14.00
2012,05,26,09,05,14.00
2012,05,26,09,06,14.10
2012,05,26,09,07,14.10
2012,05,26,09,08,14.10
2012,05,26,09,09,14.10
2012,05,26,09,10,14.20
2012,05,26,09,11,14.20
2012,05,26,09,12,14.30
2012,05,26,09,13,14.30
2012,05,26,09,14,14.30
2012,05,26,09,15,14.30
2012,05,26,09,16,14.30
2012,05,26,09,17,14.30
2012,05,26,09,18,14.30
2012,05,26,09,19,14.20
2012,05,26,09,20,14.20
2012,05,26,09,21,14.30
2012,05,26,09,22,14.20
2012,05,26,09,23,14.10
2012,05,26,09,24,14.00
2012,05,26,09,25,14.10
2012,05,26,09,26,14.10
2012,05,26,09,27,14.10
2012,05,26,09,28,14.10
2012,05,26,09,29,14.10
2012,05,26,09,30,14.20
2012,05,26,09,31,14.30
2012,05,26,09,32,14.30
2012,05,26,09,33,14.40
2012,05,26,09,34,14.40
2012,05,26,09,35,14.40
2012,05,26,09,36,14.40
2012,05,26,09,37,14.50
2012,05,26,09,38,14.60
2012,05,26,09,39,14.60
2012,05,26,09,40,14.60
2012,05,26,09,41,14.60
2012,05,26,09,42,14.50
2012,05,26,09,43,14.50
2012,05,26,09,44,14.40
2012,05,26,09,45,14.40
2012,05,26,09,46,14.40
2012,05,26,09,47,14.50
2012,05,26,09,48,14.60
2012,05,26,09,49,14.70
2012,05,26,09,50,14.80
2012,05,26,09,51,14.80
2012,05,26,09,52,14.90
2012,05,26,09,53,14.90
2012,05,26,09,54,14.80
2012,05,26,09,55,14.80
2012,05,26,09,56,14.80
2012,05,26,09,57,14.70
2012,05,26,09,58,14.70
2012,05,26,09,59,14.70
2012,05,26,10,00,14.70
2012,05,26,10,01,14.70
2012,05,26,10,02,14.70
2012,05,26,10,03,14.80
2012,05,26,10,04,14.80
2012,05,26,10,05,14.80
2012,05,26,10,06,14.80
2012,05,26,10,07,14.80
2012,05,26,10,08,14.80
2012,05,26,10,09,14.80
2012,05,26,10,10,14.80
2012,05,26,10,11,14.90
2012,05,26,10,12,14.90
2012,05,26,10,13,15.00
2012,05,26,10,14,15.10
2012,05,26,10,15,15.20
2012,05,26,10,16,15.30
2012,05,26,10,17,15.30
2012,05,26,10,18,15.30
2012,05,26,10,19,15.30
2012,05,26,10,20,15.40
2012,05,26,10,21,15.50
2012,05,26,10,22,15.60
2012,05,26,10,23,15.70
2012,05,26,10,24,15.80
2012,05,26,10,25,15.80
2012,05,26,10,26,15.80
2012,05,26,10,27,15.90
2012,05,26,10,28,15.90
2012,05,26,10,29,15.90
2012,05,26,10,30,15.90
2012,05,26,10,31,15.80
2012,05,26,10,32,15.60
2012,05,26,10,33,15.50
2012,05,26,10,34,15.30
2012,05,26,10,35,15.20
2012,05,26,10,36,15.00
2012,05,26,10,37,14.90
2012,05,26,10,38,14.80
2012,05,26,10,39,14.70
2012,05,26,10,40,14.70
2012,05,26,10,41,14.60
2012,05,26,10,42,14.50
2012,05,26,10,43,14.40
2012,05,26,10,44,14.30
2012,05,26,10,45,14.40
2012,05,26,10,46,14.40
2012,05,26,10,47,14.40
2012,05,26,10,48,14.40
2012,05,26,10,49,14.30
2012,05,26,10,50,14.20
2012,05,26,10,51,14.10
2012,05,26,10,52,14.00
2012,05,26,10,53,13.90
2012,05,26,10,54,13.90
2012,05,26,10,55,13.90
2012,05,26,10,56,13.90
2012,05,26,10,57,13.80
2012,05,26,10,58,13.80
2012,05,26,10,59,13.80
2012,05,26,11,00,13.80
2012,05,26,11,01,13.80
2012,05,26,11,02,13.80
2012,05,26,11,03,13.80
2012,05,26,11,04,13.90
2012,05,26,11,05,14.00
2012,05,26,11,06,14.00
2012,05,26,11,07,14.10
2012,05,26,11,08,14.10
2012,05,26,11,09,14.20
2012,05,26,11,10,14.20
2012,05,26,11,11,14.20
2012,05,26,11,12,14.20
2012,05,26,11,13,14.30
2012,05,26,11,14,14.40
2012,05,26,11,15,14.50
2012,05,26,11,16,14.60
2012,05,26,11,17,14.50
2012,05,26,11,18,14.40
2012,05,26,11,19,14.40
2012,05,26,11,20,14.30
2012,05,26,11,21,14.30
2012,05,26,11,22,14.20
2012,05,26,11,23,14.30
2012,05,26,11,24,14.30
2012,05,26,11,25,14.30
2012,05,26,11,26,14.30
2012,05,26,11,27,14.30
2012,05,26,11,28,14.20
2012,05,26,11,29,14.20
2012,05,26,11,30,14.20
2012,05,26,11,31,14.20
2012,05,26,11,32,14.20
2012,05,26,11,33,14.20
2012,05,26,11,34,14.20
2012,05,26,11,35,14.30
2012,05,26,11,36,14.30
2012,05,26,11,37,14.40
2012,05,26,11,38,14.40
2012,05,26,11,39,14.30
2012,05,26,11,40,14.40
2012,05,26,11,41,14.40
2012,05,26,11,42,14.40
2012,05,26,11,43,14.40
2012,05,26,11,44,14.50
2012,05,26,11,45,14.50
2012,05,26,11,46,14.60
2012,05,26,11,47,14.60
2012,05,26,11,48,14.60
2012,05,26,11,49,14.60
2012,05,26,11,50,14.60
2012,05,26,11,51,14.60
2012,05,26,11,52,14.60
2012,05,26,11,53,14.60
2012,05,26,11,54,14.70
2012,05,26,11,55,14.70
2012,05,26,11,56,14.70
2012,05,26,11,57,14.70
2012,05,26,11,58,14.70
2012,05,26,11,59,14.60
2012,05,26,12,00,14.50
2012,05,26,12,01,14.50
2012,05,26,12,02,14.40
2012,05,26,12,03,14.40
2012,05,26,12,04,14.30
2012,05,26,12,05,14.20
2012,05,26,12,06,14.20
2012,05,26,12,07,14.10
2012,05,26,12,08,14.00
2012,05,26,12,09,13.90
2012,05,26,12,10,13.80
2012,05,26,12,11,13.70
2012,05,26,12,12,13.60
2012,05,26,12,13,13.60
2012,05,26,12,14,13.50
2012,05,26,12,15,13.50
2012,05,26,12,16,13.40
2012,05,26,12,17,13.40
2012,05,26,12,18,13.40
2012,05,26,12,19,13.30
2012,05,26,12,20,13.30
2012,05,26,12,21,13.30
2012,05,26,12,22,13.20
2012,05,26,12,23,13.20
2012,05,26,12,24,13.20
2012,05,26,12,25,13.20
2012,05,26,12,26,13.20
2012,05,26,12,27,13.20
2012,05,26,12,28,13.30
2012,05,26,12,29,13.30
2012,05,26,12,30,13.30
2012,05,26,12,31,13.40
2012,05,26,12,32,13.50
2012,05,26,12,33,13.50
2012,05,26,12,34,13.50
2012,05,26,12,35,13.50
2012,05,26,12,36,13.50
2012,05,26,12,37,13.40
2012,05,26,12,38,13.40
2012,05,26,12,39,13.40
2012,05,26,12,40,13.40
2012,05,26,12,41,13.40
2012,05,26,12,42,13.50
2012,05,26,12,43,13.40
2012,05,26,12,44,13.40
2012,05,26,12,45,13.40
2012,05,26,12,46,13.40
2012,05,26,12,47,13.30
2012,05,26,12,48,13.30
2012,05,26,12,49,13.40
2012,05,26,12,50,13.40
2012,05,26,12,51,13.50
2012,05,26,12,52,13.50
2012,05,26,12,53,13.60
2012,05,26,12,54,13.60
2012,05,26,12,55,13.70
2012,05,26,12,56,13.70
2012,05,26,12,57,13.70
2012,05,26,12,58,13.70
2012,05,26,12,59,13.60
2012,05,26,13,00,13.60
2012,05,26,13,01,13.60
2012,05,26,13,02,13.60
2012,05,26,13,03,13.70
2012,05,26,13,04,13.70
2012,05,26,13,05,13.80
2012,05,26,13,06,13.90
2012,05,26,13,07,13.90
2012,05,26,13,08,13.90
2012,05,26,13,09,14.00
2012,05,26,13,10,14.00
2012,05,26,13,11,14.10
2012,05,26,13,12,14.10
2012,05,26,13,13,14.20
2012,05,26,13,14,14.30
2012,05,26,13,15,14.40
2012,05,26,13,16,14.40
2012,05,26,13,17,14.40
2012,05,26,13,18,14.40
2012,05,26,13,19,14.40
2012,05,26,13,20,14.40
2012,05,26,13,21,14.30
2012,05,26,13,22,14.30
2012,05,26,13,23,14.40
2012,05,26,13,24,14.50
2012,05,26,13,25,14.50
2012,05,26,13,26,14.60
2012,05,26,13,27,14.60
2012,05,26,13,28,14.60
2012,05,26,13,29,14.60
2012,05,26,13,30,14.60
2012,05,26,13,31,14.60
2012,05,26,13,32,14.60
2012,05,26,13,33,14.60
2012,05,26,13,34,14.70
2012,05,26,13,35,14.80
2012,05,26,13,36,14.90
2012,05,26,13,37,14.90
2012,05,26,13,38,15.00
2012,05,26,13,39,15.00
2012,05,26,13,40,15.00
2012,05,26,13,41,15.10
2012,05,26,13,42,15.20
2012,05,26,13,43,15.20
2012,05,26,13,44,15.30
2012,05,26,13,45,15.40
2012,05,26,13,46,15.40
2012,05,26,13,47,15.50
2012,05,26,13,48,15.50
2012,05,26,13,49,15.50
2012,05,26,13,50,15.50
2012,05,26,13,51,15.50
2012,05,26,13,52,15.50
2012,05,26,13,53,15.50
2012,05,26,13,54,15.40
2012,05,26,13,55,15.30
2012,05,26,13,56,15.30
2012,05,26,13,57,15.30
2012,05,26,13,58,15.30
2012,05,26,13,59,15.30
2012,05,26,14,00,15.30
2012,05,26,14,01,15.40
2012,05,26,14,02,15.50
2012,05,26,14,03,15.50
2012,05,26,14,04,15.50
2012,05,26,14,05,15.50
2012,05,26,14,06,15.60
2012,05,26,14,07,15.50
2012,05,26,14,08,15.50
2012,05,26,14,09,15.40
2012,05,26,14,10,15.30
2012,05,26,14,11,15.20
2012,05,26,14,12,15.20
2012,05,26,14,13,15.20
2012,05,26,14,14,15.20
2012,05,26,14,15,15.20
2012,05,26,14,16,15.10
2012,05,26,14,17,15.10
2012,05,26,14,18,15.20
2012,05,26,14,19,15.20
2012,05,26,14,20,15.10
2012,05,26,14,21,15.00
2012,05,26,14,22,14.90
2012,05,26,14,23,14.80
2012,05,26,14,24,14.80
2012,05,26,14,25,14.80
2012,05,26,14,26,14.80
2012,05,26,14,27,14.80
2012,05,26,14,28,14.60
2012,05,26,14,29,14.50
2012,05,26,14,30,14.30
2012,05,26,14,31,14.10
2012,05,26,14,32,14.00
2012,05,26,14,33,14.00
2012,05,26,14,34,14.10
2012,05,26,14,35,14.20
2012,05,26,14,36,14.30
2012,05,26,14,37,14.30
2012,05,26,14,38,14.30
2012,05,26,14,39,14.30
2012,05,26,14,40,14.30
2012,05,26,14,41,14.30
2012,05,26,14,42,14.30
2012,05,26,14,43,14.40
2012,05,26,14,44,14.60
2012,05,26,14,45,14.60
2012,05,26,14,46,14.70
2012,05,26,14,47,14.70
2012,05,26,14,48,14.80
2012,05,26,14,49,14.80
2012,05,26,14,50,14.70
2012,05,26,14,51,14.70
2012,05,26,14,52,14.70
2012,05,26,14,53,14.60
2012,05,26,14,54,14.70
2012,05,26,14,55,14.60
2012,05,26,14,56,14.50
2012,05,26,14,57,14.40
2012,05,26,14,58,14.20
2012,05,26,14,59,14.10
2012,05,26,15,00,14.00
2012,05,26,15,01,14.00
2012,05,26,15,02,14.00
2012,05,26,15,03,14.00
2012,05,26,15,04,14.00
2012,05,26,15,05,13.90
2012,05,26,15,06,13.80
2012,05,26,15,07,13.90
2012,05,26,15,08,13.90
2012,05,26,15,09,13.90
2012,05,26,15,10,13.80
2012,05,26,15,11,13.70
2012,05,26,15,12,13.50
2012,05,26,15,13,13.40
2012,05,26,15,14,13.10
2012,05,26,15,15,12.90
2012,05,26,15,16,12.90
2012,05,26,15,17,12.90
2012,05,26,15,18,12.90
2012,05,26,15,19,12.90
2012,05,26,15,20,12.90
2012,05,26,15,21,12.80
2012,05,26,15,22,12.70
2012,05,26,15,23,12.60
2012,05,26,15,24,12.40
2012,05,26,15,25,12.30
2012,05,26,15,26,12.30
2012,05,26,15,27,12.40
2012,05,26,15,28,12.40
2012,05,26,15,29,12.40
2012,05,26,15,30,12.40
2012,05,26,15,31,12.40
2012,05,26,15,32,12.40
2012,05,26,15,33,12.40
2012,05,26,15,34,12.50
2012,05,26,15,35,12.50
2012,05,26,15,36,12.60
2012,05,26,15,37,12.70
2012,05,26,15,38,12.70
2012,05,26,15,39,12.70
2012,05,26,15,40,12.70
2012,05,26,15,41,12.70
2012,05,26,15,42,12.60
2012,05,26,15,43,12.50
2012,05,26,15,44,12.50
2012,05,26,15,45,12.40
2012,05,26,15,46,12.50
2012,05,26,15,47,12.60
2012,05,26,15,48,12.70
2012,05,26,15,49,12.80
2012,05,26,15,50,12.90
2012,05,26,15,51,13.00
2012,05,26,15,52,13.10
2012,05,26,15,53,13.10
2012,05,26,15,54,13.10
2012,05,26,15,55,13.00
2012,05,26,15,56,12.90
2012,05,26,15,57,12.90
2012,05,26,15,58,12.80
2012,05,26,15,59,12.80
2012,05,26,16,00,12.80
2012,05,26,16,01,12.80
2012,05,26,16,02,12.90
2012,05,26,16,03,12.90
2012,05,26,16,04,12.90
2012,05,26,16,05,12.90
2012,05,26,16,06,12.90
2012,05,26,16,07,12.90
2012,05,26,16,08,12.90
2012,05,26,16,09,12.90
2012,05,26,16,10,12.90
2012,05,26,16,11,12.90
2012,05,26,16,12,12.80
2012,05,26,16,13,12.80
2012,05,26,16,14,12.80
2012,05,26,16,15,12.90
2012,05,26,16,16,12.80
2012,05,26,16,17,12.70
2012,05,26,16,18,12.60
2012,05,26,16,19,12.60
2012,05,26,16,20,12.50
2012,05,26,16,21,12.40
2012,05,26,16,22,12.30
2012,05,26,16,23,12.30
2012,05,26,16,24,12.30
2012,05,26,16,25,12.30
2012,05,26,16,26,12.30
2012,05,26,16,27,12.30
2012,05,26,16,28,12.30
2012,05,26,16,29,12.20
2012,05,26,16,30,12.20
2012,05,26,16,31,12.20
2012,05,26,16,32,12.20
2012,05,26,16,33,12.10
2012,05,26,16,34,12.10
2012,05,26,16,35,12.20
2012,05,26,16,36,12.20
2012,05,26,16,37,12.20
2012,05,26,16,38,12.20
2012,05,26,16,39,12.20
2012,05,26,16,40,12.20
2012,05,26,16,41,12.10
2012,05,26,16,42,12.10
2012,05,26,16,43,12.10
2012,05,26,16,44,12.20
2012,05,26,16,45,12.20
2012,05,26,16,46,12.20
2012,05,26,16,47,12.20
2012,05,26,16,48,12.20
2012,05,26,16,49,12.10
2012,05,26,16,50,12.10
2012,05,26,16,51,12.20
2012,05,26,16,52,12.30
2012,05,26,16,53,12.40
2012,05,26,16,54,12.40
2012,05,26,16,55,12.50
2012,05,26,16,56,12.60
2012,05,26,16,57,12.70
2012,05,26,16,58,12.70
2012,05,26,16,59,12.70
2012,05,26,17,00,12.70
2012,05,26,17,01,12.80
2012,05,26,17,02,12.80
2012,05,26,17,03,12.80
2012,05,26,17,04,12.80
2012,05,26,17,05,12.80
2012,05,26,17,06,12.80
2012,05,26,17,07,12.80
2012,05,26,17,08,12.90
2012,05,26,17,09,13.00
2012,05,26,17,10,13.10
2012,05,26,17,11,13.10
2012,05,26,17,12,13.10
2012,05,26,17,13,13.20
2012,05,26,17,14,13.30
2012,05,26,17,15,13.30
2012,05,26,17,16,13.40
2012,05,26,17,17,13.40
2012,05,26,17,18,13.40
2012,05,26,17,19,13.40
2012,05,26,17,20,13.40
2012,05,26,17,21,13.40
2012,05,26,17,22,13.40
2012,05,26,17,23,13.40
2012,05,26,17,24,13.30
2012,05,26,17,25,13.30
2012,05,26,17,26,13.30
2012,05,26,17,27,13.30
2012,05,26,17,28,13.30
2012,05,26,17,29,13.30
2012,05,26,17,30,13.40
2012,05,26,17,31,13.40
2012,05,26,17,32,13.50